STARLINK-36602, 67849

Orbit data source: Space-Track

STARLINK-36602, 67849 is a payload satellite owned by SpaceX/Seattle (US) in LEO that was launched on Mon, 16 Feb 2026 UTC via an FALCON 9 launch vehicle from the Air Force Eastern Test Range (AFETR). Payload-class satellites include a variety of spacecraft equipped with specific instruments for various scientific and technological missions. These include communications satellites like Starlink; space stations such as the ISS; scientific satellites like the Hubble; Earth observation satellites from companies like Planet Labs, Umbra, and HawkEye 360; GPS; miniature CubeSats for education and research; and military/defense satellites.

Loading next visibility...
Identifier
67849, 2026-033AE
Orbit
LEO
Country
Flag of USUS
Related business
Manufacturer
SpaceX/Seattle
Mission
Operational Commercial Communications
Bus & Motor
STARLINK V2MO, Unknown motor
Mass
575 kg wet, ~530 kg dry
Launch date (UTC)
2026-02-16 (4 months ago)
Launch vehicle
FALCON 9
Launch site
Air Force Eastern Test Range (AFETR)
Object type
Payload
Rocket body
Debris
Shape & HBR
Box + 2 Pan, 17.7 m
Radar Cross Section
36.964 m², Large (>1 m²)

Expand to show TLE details & history
Last TLE update: 11 hours ago

TLE from 11 hours ago
0 STARLINK-36602
1 67849U 26033AE  26171.37667331  .00008735  00000-0  32649-3 0  9991
2 67849  43.0077  47.5635 0001121 277.5732  82.4992 15.27588945 20375
Epoch: 2026-06-20T09:02Z
TLE epoch observation values (Epoch: 2026-06-20T09:02:24.573Z)
Latitude
-0.00007°
Longitude
3.36886°
Altitude
482.698 km
Speed
7.626 km/s
True Right ascension
03h 10m 15s
True Declination
0° 00' 00"
Sunlit
Object was in daylight at epoch
Visualization orbit readout
Latitude
Unknown
Longitude
Unknown
Altitude
Unknown
Speed
Unknown
Apparent Right ascension
Unknown
Apparent Declination
Unknown
Sunlit
N/A
Visualization observer readout
Local Sidereal Time
07:24:13
Azimuth
Unknown
Elevation
Unknown
Doppler factor
Unknown
Orbital elements
Apogee altitude
485.736 km
Perigee altitude
484.197 km
Semi-major axis
6,863.103 km
Eccentricity
0.00011
Inclination
43.0077°
RAAN
47.5635°
Arg. of periapsis
277.5732°
True anomaly
82.51194°
Mean anomaly
82.4992°
Eccentric anomaly
82.50557°
Mean motion
3.81735 °/min
Orbital period
94.31 mins
BSTAR
0.00032649
Loading maneuver chart data...
Computing Atmospheric mass density...
Loading historical data...
Loading historical data...
Loading historical data...
Loading historical data...
Loading historical data...
Loading historical data...
Loading historical data...

Documentation

Showing up to 5 results
|